1532484000.91,40136,18.38,73900.0,2.15,-21.87,-22.31,0,*75
1532484002.16,40137,18.38,73900.0,2.13,-21.97,-22.37,0,*75
1532484003.36,40138,18.38,73896.5,2.11,-21.63,-22.11,0,*77
1532484004.59,40139,18.38,73910.3,2.11,-21.67,-22.11,0,*72
1532484005.84,40140,18.38,73912.3,2.13,-21.47,-21.97,0,*71
1532484007.09,40141,18.38,73906.3,2.11,-21.03,-21.53,0,*7A
1532484008.35,40142,18.38,73902.3,2.11,-21.03,-21.53,0,*79
1532484009.55,40143,18.38,73904.5,2.11,-21.47,-21.77,0,*7E
1532484010.83,40144,18.38,73904.3,2.13,-21.83,-22.21,0,*73
1532484012.03,40145,18.38,73902.3,2.11,-21.77,-22.27,0,*7D
1532484013.25,40146,18.38,73902.0,2.11,-21.97,-22.41,0,*70
1532484014.45,40147,18.38,73904.8,2.07,-22.11,-22.63,0,*7B
1532484015.68,40148,18.38,73908.8,2.07,-22.11,-22.47,0,*72
1532484016.9,40149,18.38,73914.0,2.07,-21.33,-21.73,0,*74
1532484018.15,40150,18.38,73912.8,2.07,-21.33,-21.67,0,*79
1532484019.37,40151,18.38,73910.8,2.07,-21.09,-21.53,0,*76
1532484020.57,40152,18.38,73910.0,2.07,-20.89,-21.39,0,*70
1532484021.82,40153,18.38,73904.0,2.07,-21.23,-21.67,0,*7B
1532484023.02,40154,18.38,73896.5,2.11,-21.43,-22.07,0,*78
1532484024.25,40155,18.38,73902.0,2.11,-21.53,-22.07,0,*78
1532484025.49,40156,18.38,73898.5,2.11,-21.53,-21.93,0,*75
1532484026.71,40157,18.38,73894.3,2.11,-21.63,-22.21,0,*7D
1532484027.93,40158,18.38,73888.3,2.11,-21.43,-21.97,0,*7E
1532484029.16,40159,18.38,73894.8,2.11,-21.77,-22.21,0,*76
1532484030.4,40160,18.38,73898.3,2.11,-21.53,-22.07,0,*7E
1532484031.6,40161,18.38,73902.0,2.07,-21.73,-22.27,0,*78
1532484032.84,40162,18.38,73908.0,2.07,-21.03,-21.53,0,*7C
1532484034.09,40163,18.38,73906.0,2.07,-20.49,-21.03,0,*77
1532484035.32,40164,18.38,73898.5,2.11,-20.19,-20.69,0,*7F
1532484036.59,40165,18.38,73896.8,2.13,-21.33,-21.83,0,*70
1532484037.82,40166,18.38,73900.0,2.11,-21.83,-22.37,0,*76
1532484039.07,40167,18.38,73902.5,2.13,-21.83,-22.41,0,*74
1532484040.27,40168,18.38,73910.0,2.11,-21.93,-22.57,0,*7F
1532484041.5,40169,18.38,73898.3,2.13,-21.43,-21.93,0,*7A
1532484042.72,40170,18.38,73900.8,2.11,-21.43,-21.83,0,*71
1532484043.98,40171,18.38,73904.5,2.11,-21.27,-21.83,0,*72
1532484045.26,40172,18.38,73904.8,2.13,-21.27,-21.67,0,*79
1532484046.49,40173,18.38,73910.5,2.11,-20.89,-21.33,0,*7E
1532484047.76,40174,18.38,73902.3,2.13,-21.33,-21.83,0,*70
1532484049.02,40175,18.38,73910.8,2.13,-21.17,-21.67,0,*7D
1532484050.27,40176,18.38,73906.5,2.13,-21.27,-21.63,0,*79
1532484051.52,40177,18.38,73904.3,2.13,-21.17,-21.53,0,*78
1532484052.72,40178,18.38,73910.3,2.15,-20.63,-21.09,0,*7C
1532484054.0,40179,18.38,73904.0,2.17,-20.83,-21.27,0,*7D
1532484055.25,40180,18.38,73904.5,2.17,-21.13,-21.57,0,*74
1532484056.47,40181,18.38,73906.8,2.17,-20.93,-21.43,0,*79
1532484057.72,40182,18.38,73904.0,2.17,-21.27,-21.63,0,*76
1532484058.95,40183,18.38,73906.8,2.17,-21.47,-22.03,0,*74
1532484060.15,40184,18.38,73904.8,2.19,-21.73,-22.11,0,*79
1532484061.38,40185,18.38,73904.5,2.19,-21.83,-22.27,0,*72
1532484062.63,40186,18.38,73904.3,2.19,-21.97,-22.31,0,*73
1532484063.88,40187,18.38,73902.3,2.17,-21.87,-22.37,0,*7B
1532484065.16,40188,18.38,73906.3,2.17,-22.21,-22.73,0,*7B
1532484066.41,40189,18.38,73900.8,2.17,-22.17,-22.67,0,*7A
1532484067.61,40190,18.38,73902.8,2.15,-21.93,-22.37,0,*7A
1532484068.86,40191,18.38,73898.8,2.17,-21.77,-22.21,0,*74
1532484070.12,40192,18.38,73906.8,2.17,-22.31,-22.87,0,*7A
1532484071.31,40193,18.38,73910.3,2.15,-22.07,-22.57,0,*71
1532484072.53,40194,18.38,73910.5,2.15,-21.93,-22.21,0,*79
1532484073.79,40195,18.38,73910.5,2.17,-21.47,-21.87,0,*7C
1532484075.01,40196,18.38,73908.3,2.15,-21.13,-21.57,0,*71
1532484076.26,40197,18.38,73900.3,2.17,-21.43,-21.87,0,*7A
1532484077.49,40198,18.38,73898.8,2.17,-22.03,-22.53,0,*78
1532484078.69,40199,18.38,73898.0,2.15,-22.03,-22.53,0,*7B
1532484079.88,40200,18.38,73900.3,2.15,-22.07,-22.67,0,*7B
1532484081.16,40201,18.38,73898.8,2.17,-22.17,-22.73,0,*7C
1532484082.41,40202,18.38,73898.0,2.17,-22.17,-22.83,0,*70
1532484083.62,40203,18.38,73898.5,2.15,-21.93,-22.53,0,*71
1532484084.87,40204,18.38,73900.8,2.15,-21.87,-22.31,0,*77
1532484086.07,40205,18.38,73902.0,2.15,-22.03,-22.53,0,*7D
1532484087.28,40206,18.38,73902.5,2.15,-21.93,-22.53,0,*74
1532484088.47,40207,18.38,73904.3,2.15,-22.03,-22.57,0,*7B
1532484089.67,40208,18.38,73900.3,2.15,-22.03,-22.57,0,*74
1532484090.86,40209,18.38,73902.5,2.15,-22.07,-22.57,0,*71
1532484092.06,40210,18.38,73906.8,2.15,-22.03,-22.57,0,*7D
1532484093.25,40211,18.38,73904.8,2.15,-22.07,-22.67,0,*7B
1532484094.48,40212,18.38,73910.0,2.15,-22.31,-22.97,0,*72
1532484095.68,40213,18.38,73910.8,2.15,-21.93,-22.53,0,*70
1532484096.96,40214,18.38,73912.0,2.17,-22.17,-22.73,0,*78
1532484098.18,40215,18.38,73912.3,2.15,-22.07,-22.73,0,*7A
1532484099.41,40216,18.38,73914.3,2.15,-21.73,-22.17,0,*7B
1532484100.64,40217,18.38,73908.3,2.15,-21.77,-22.31,0,*7A
1532484101.86,40218,18.38,73910.0,2.15,-21.57,-22.03,0,*76
1532484103.12,40219,18.38,73910.5,2.17,-21.77,-22.31,0,*76
1532484104.35,40220,18.38,73908.3,2.17,-21.47,-21.93,0,*74
1532484105.57,40221,18.38,73902.3,2.17,-22.03,-22.57,0,*7D
1532484106.83,40222,18.38,73898.8,2.17,-21.77,-22.31,0,*7E
1532484108.08,40223,18.38,73900.3,2.17,-22.21,-22.83,0,*76
1532484109.28,40224,18.38,73898.3,2.19,-22.27,-22.93,0,*78
1532484110.51,40225,18.38,73900.3,2.19,-22.27,-22.77,0,*73
1532484111.73,40226,18.38,73896.0,2.17,-22.03,-22.37,0,*7C
1532484112.96,40227,18.38,73902.0,2.17,-21.93,-22.37,0,*77
1532484114.18,40228,18.38,73902.8,2.17,-22.07,-22.57,0,*70
1532484115.41,40229,18.38,73904.3,2.19,-22.17,-22.63,0,*79
1532484116.64,40230,18.38,73902.8,2.19,-22.17,-22.67,0,*75
1532484117.85,40231,18.38,73904.3,2.19,-22.53,-23.09,0,*7D
1532484119.08,40232,18.38,73900.8,2.17,-22.41,-22.87,0,*74
1532484120.33,40233,18.38,73908.5,2.17,-22.31,-22.83,0,*76
1532484121.55,40234,18.38,73908.3,2.17,-22.37,-22.87,0,*73
1532484122.81,40235,18.38,73908.0,2.17,-22.31,-22.83,0,*70
1532484124.07,40236,18.38,73904.8,2.17,-22.53,-23.19,0,*75
1532484125.29,40237,18.38,73906.0,2.17,-22.07,-22.53,0,*7A
1532484126.54,40238,18.38,73906.0,2.17,-22.31,-22.87,0,*79
1532484127.74,40239,18.38,73906.8,2.19,-22.63,-23.09,0,*76
1532484129.01,40240,18.38,73904.3,2.17,-22.21,-22.73,0,*7C
1532484130.24,40241,18.38,73900.8,2.17,-22.37,-22.87,0,*71
1532484131.49,40242,18.38,73902.5,2.17,-22.67,-23.29,0,*72
1532484132.71,40243,18.38,73904.3,2.19,-22.87,-23.33,0,*78
1532484133.96,40244,18.38,73904.5,2.15,-22.21,-22.73,0,*7A
1532484135.21,40245,18.38,73910.5,2.17,-22.67,-23.19,0,*76
1532484136.46,40246,18.38,73906.0,2.17,-22.67,-23.29,0,*76
1532484137.68,40247,18.38,73904.5,2.15,-22.31,-22.83,0,*77
1532484138.93,40248,18.38,73900.8,2.17,-22.31,-22.67,0,*70
1532484140.16,40249,18.38,73904.3,2.17,-22.41,-22.87,0,*78
1532484141.36,40250,18.38,73906.5,2.15,-22.53,-23.13,0,*7D
1532484142.59,40251,18.38,73902.0,2.17,-22.41,-22.97,0,*70
1532484143.84,40252,18.38,73908.0,2.17,-22.41,-23.03,0,*7F
1532484145.04,40253,18.38,73904.8,2.15,-22.07,-22.57,0,*7E
1532484146.29,40254,18.38,73898.8,2.17,-22.31,-22.83,0,*77
1532484147.54,40255,18.38,73900.3,2.17,-22.21,-22.83,0,*77
1532484148.76,40256,18.38,73896.3,2.17,-21.39,-21.73,0,*72
1532484149.99,40257,18.38,73898.3,2.19,-21.03,-21.39,0,*7A
1532484151.21,40258,18.38,73898.8,2.19,-21.43,-21.83,0,*70
1532484152.49,40259,18.38,73904.5,2.21,-21.67,-22.21,0,*77
1532484153.77,40260,18.38,73900.0,2.21,-21.83,-22.21,0,*77
1532484154.99,40261,18.38,73906.3,2.19,-21.97,-22.53,0,*7D
1532484156.25,40262,18.38,73904.3,2.21,-22.31,-22.87,0,*73
1532484157.53,40263,18.38,73902.8,2.21,-22.31,-22.77,0,*7D
1532484158.74,40264,18.38,73900.3,2.19,-22.53,-22.97,0,*7B
1532484159.94,40265,18.38,73896.3,2.19,-22.27,-22.67,0,*76
1532484161.16,40266,18.38,73896.3,2.21,-22.07,-22.57,0,*7F
1532484162.41,40267,18.38,73906.5,2.21,-22.31,-22.87,0,*76
1532484163.61,40268,18.38,73904.8,2.19,-22.37,-22.83,0,*70
1532484164.87,40269,18.38,73904.3,2.21,-22.07,-22.47,0,*71
1532484166.07,40270,18.38,73906.3,2.19,-21.77,-22.11,0,*75
1532484167.35,40271,18.38,73906.0,2.21,-21.97,-22.47,0,*72
1532484168.61,40272,18.38,73904.5,2.21,-22.31,-22.87,0,*72
1532484169.86,40273,18.38,73906.0,2.21,-21.47,-21.83,0,*76
1532484171.06,40274,18.38,73898.8,2.23,-21.93,-22.41,0,*77
1532484172.32,40275,18.38,73896.5,2.21,-22.21,-22.57,0,*79
1532484173.6,40276,18.38,73896.3,2.21,-21.97,-22.47,0,*75
1532484174.8,40277,18.38,73902.0,2.23,-22.41,-22.87,0,*72
1532484176.02,40278,18.38,73906.5,2.23,-22.31,-22.93,0,*7F
1532484177.26,40279,18.38,73906.5,2.23,-21.93,-22.47,0,*7C
1532484178.49,40280,18.38,73906.8,2.23,-22.21,-22.63,0,*76
1532484179.77,40281,18.38,73902.3,2.21,-22.47,-23.03,0,*72
1532484181.0,40282,18.38,73904.0,2.21,-22.41,-22.93,0,*7F
1532484182.26,40283,18.38,73906.0,2.23,-22.47,-23.03,0,*72
1532484183.51,40284,18.38,73908.0,2.23,-22.47,-23.03,0,*75
1532484184.77,40285,18.38,73906.8,2.21,-22.21,-22.57,0,*76
1532484186.03,40286,18.38,73908.5,2.21,-21.93,-22.47,0,*7E
1532484187.26,40287,18.38,73904.5,2.21,-21.63,-22.11,0,*73
1532484188.49,40288,18.38,73904.8,2.23,-21.67,-21.93,0,*73
1532484189.69,40289,18.38,73906.0,2.23,-21.47,-21.93,0,*70
1532484190.94,40290,18.38,73896.0,2.25,-21.33,-21.77,0,*77
1532484192.17,40291,18.38,73890.5,2.25,-22.03,-22.53,0,*73
1532484193.42,40292,18.38,73888.5,2.25,-22.27,-22.73,0,*74
1532484194.64,40293,18.38,73896.3,2.25,-22.07,-22.57,0,*71
1532484195.86,40294,18.38,73896.8,2.23,-22.21,-22.57,0,*74
1532484197.09,40295,18.38,73896.0,2.25,-22.41,-22.97,0,*79
1532484198.32,40296,18.38,73902.0,2.25,-22.37,-22.83,0,*7E
1532484199.54,40297,18.38,73900.3,2.25,-22.07,-22.41,0,*72
1532484200.73,40298,18.38,73896.3,2.23,-22.11,-22.57,0,*7B
1532484201.94,40299,18.38,73898.0,2.27,-22.27,-22.87,0,*76
1532484203.17,40300,18.38,73900.3,2.27,-22.17,-22.83,0,*70
1532484204.38,40301,18.38,73896.8,2.27,-22.53,-22.83,0,*71
1532484205.58,40302,18.38,73896.0,2.27,-22.41,-22.97,0,*74
1532484206.79,40303,18.38,73896.8,2.27,-22.37,-22.87,0,*75
1532484207.99,40304,18.38,73900.5,2.27,-22.41,-22.97,0,*72
1532484209.24,40305,18.38,73896.8,2.25,-22.67,-23.19,0,*72
1532484210.47,40306,18.38,73896.3,2.25,-22.53,-22.87,0,*70
1532484211.73,40307,18.38,73896.0,2.27,-22.73,-23.23,0,*7E
1532484212.98,40308,18.38,73898.3,2.25,-22.67,-23.23,0,*76
1532484214.23,40309,18.38,73896.5,2.25,-22.83,-23.33,0,*7C
1532484215.49,40310,18.38,73894.0,2.25,-22.67,-23.23,0,*7F
1532484216.7,40311,18.38,73896.5,2.23,-22.93,-23.43,0,*75
1532484217.95,40312,18.38,73896.3,2.25,-22.67,-23.03,0,*7F
1532484219.18,40313,18.38,73896.8,2.25,-22.37,-22.87,0,*76
1532484220.44,40314,18.38,73894.8,2.25,-22.57,-23.23,0,*78
1532484221.67,40315,18.38,73896.5,2.25,-22.53,-22.87,0,*72
1532484222.9,40316,18.38,73898.3,2.25,-22.57,-23.13,0,*79
1532484224.13,40317,18.38,73896.3,2.25,-22.41,-22.97,0,*72
1532484225.36,40318,18.38,73896.3,2.25,-22.41,-22.87,0,*7C
1532484226.61,40319,18.38,73888.5,2.25,-22.21,-22.83,0,*7F
1532484227.83,40320,18.38,73894.8,2.25,-22.41,-22.87,0,*77
1532484229.06,40321,18.38,73894.0,2.25,-22.67,-23.13,0,*7E
1532484230.29,40322,18.38,73890.8,2.25,-22.37,-22.83,0,*70
1532484231.57,40323,18.38,73888.0,2.25,-22.73,-23.23,0,*7A
1532484232.84,40324,18.38,73894.0,2.25,-22.73,-23.19,0,*74
1532484234.07,40325,18.38,73894.0,2.25,-22.37,-22.87,0,*73
1532484235.29,40326,18.38,73896.5,2.25,-22.07,-22.53,0,*7A
1532484236.53,40327,18.38,73894.5,2.25,-22.53,-23.13,0,*7F
1532484237.75,40328,18.38,73894.0,2.25,-22.07,-22.57,0,*70
1532484238.98,40329,18.38,73892.3,2.25,-22.57,-23.13,0,*75
1532484240.23,40330,18.38,73896.0,2.25,-22.41,-23.03,0,*7B
1532484241.46,40331,18.38,73896.5,2.25,-22.57,-23.13,0,*7C
1532484242.72,40332,18.38,73894.3,2.25,-22.57,-23.03,0,*7E
1532484243.95,40333,18.38,73894.3,2.25,-22.53,-22.87,0,*76
1532484245.21,40334,18.38,73898.3,2.27,-22.73,-23.23,0,*7E
1532484246.42,40335,18.38,73898.5,2.27,-22.57,-23.13,0,*7A
1532484247.67,40336,18.38,73898.3,2.27,-22.73,-23.23,0,*7C
1532484248.9,40337,18.38,73896.3,2.25,-22.53,-23.13,0,*7E
1532484250.13,40338,18.38,73894.0,2.25,-22.41,-22.97,0,*7F
1532484251.38,40339,18.38,73894.3,2.27,-22.73,-23.19,0,*7A
1532484252.59,40340,18.38,73898.5,2.27,-22.41,-22.97,0,*72
1532484253.79,40341,18.38,73900.8,2.27,-22.83,-23.39,0,*78
1532484254.99,40342,18.38,73896.8,2.27,-22.37,-22.87,0,*70
1532484256.24,40343,18.38,73898.5,2.29,-22.31,-22.83,0,*7D
1532484257.47,40344,18.38,73896.3,2.27,-22.57,-23.19,0,*76
1532484258.68,40345,18.38,73898.0,2.27,-22.57,-23.13,0,*7D
1532484259.89,40346,18.38,73892.5,2.27,-22.41,-22.97,0,*74
1532484261.1,40347,18.38,73898.5,2.27,-22.53,-22.97,0,*76
1532484262.32,40348,18.38,73894.5,2.29,-22.37,-23.13,0,*78
1532484263.55,40349,18.38,73898.8,2.27,-22.83,-23.33,0,*7A
1532484264.78,40350,18.38,73896.8,2.27,-22.67,-23.19,0,*70
1532484265.98,40351,18.38,73892.3,2.27,-22.67,-23.13,0,*7B
1532484267.19,40352,18.38,73894.0,2.27,-22.57,-23.13,0,*7B
1532484268.42,40353,18.38,73896.8,2.27,-22.67,-23.19,0,*73
1532484269.67,40354,18.38,73896.0,2.27,-22.73,-23.19,0,*71
1532484270.89,40355,18.38,73898.5,2.27,-22.27,-22.73,0,*7C
1532484272.13,40356,18.38,73894.3,2.27,-22.57,-23.03,0,*7E
1532484273.4,40357,18.38,73896.0,2.29,-22.21,-22.77,0,*72
1532484274.68,40358,18.38,73894.8,2.29,-22.17,-22.77,0,*78
1532484275.91,40359,18.38,73898.5,2.29,-22.37,-22.93,0,*71
1532484277.17,40360,18.38,73898.8,2.33,-22.47,-23.13,0,*7E
1532484278.42,40361,18.38,73898.0,2.33,-22.21,-22.83,0,*77
1532484279.68,40362,18.38,73898.3,2.33,-22.17,-22.53,0,*7C
1532484280.93,40363,18.38,73896.8,2.33,-22.31,-22.93,0,*75
1532484282.16,40364,18.38,73894.3,2.33,-22.03,-22.63,0,*7C
1532484283.41,40365,18.38,73892.0,2.33,-21.97,-22.67,0,*77
1532484284.66,40366,18.38,73898.5,2.35,-22.31,-22.77,0,*7C
1532484285.85,40367,18.38,73896.0,2.35,-22.07,-22.63,0,*7D
1532484287.11,40368,18.38,73894.8,2.35,-22.17,-22.77,0,*76
1532484288.33,40369,18.38,73886.8,2.35,-22.11,-22.77,0,*71
1532484289.58,40370,18.38,73890.0,2.33,-22.31,-22.83,0,*76
1532484290.78,40371,18.38,73890.5,2.35,-22.27,-22.87,0,*72
1532484292.01,40372,18.38,73894.8,2.35,-22.47,-23.09,0,*70
1532484293.22,40373,18.38,73894.3,2.37,-22.27,-22.93,0,*77
1532484294.42,40374,18.38,73896.3,2.37,-22.63,-23.13,0,*79
1532484295.68,40375,18.38,73896.8,2.37,-22.17,-22.77,0,*78
1532484296.94,40376,18.38,73896.5,2.37,-22.47,-23.03,0,*7C
1532484298.17,40377,18.38,73894.8,2.37,-22.63,-23.23,0,*79
1532484299.38,40378,18.38,73896.3,2.37,-22.27,-22.87,0,*79
1532484300.61,40379,18.38,73896.8,2.37,-22.41,-23.03,0,*75
1532484301.87,40380,18.38,73894.3,2.37,-22.47,-23.03,0,*75
1532484303.1,40381,18.38,73892.8,2.37,-22.63,-23.23,0,*70
1532484304.33,40382,18.38,73894.8,2.37,-22.57,-23.19,0,*7D
1532484305.59,40383,18.38,73898.0,2.39,-21.87,-22.37,0,*71
1532484306.81,40384,18.38,73898.5,2.39,-22.11,-22.67,0,*7F
1532484308.06,40385,18.38,73896.3,2.39,-22.67,-23.19,0,*77
1532484309.29,40386,18.38,73894.8,2.41,-22.83,-23.33,0,*79
1532484310.57,40387,18.38,73892.5,2.43,-22.77,-23.33,0,*71
1532484311.85,40388,18.38,73900.0,2.39,-22.73,-23.23,0,*76
1532484313.07,40389,18.38,73898.8,2.39,-22.11,-22.57,0,*71
1532484314.34,40390,18.38,73896.5,2.43,-22.47,-22.97,0,*7B
1532484315.59,40391,18.38,73896.8,2.43,-22.67,-23.19,0,*7F
1532484316.8,40392,18.38,73896.8,2.41,-22.03,-22.53,0,*73
1532484318.03,40393,18.38,73900.3,2.41,-21.87,-22.37,0,*7F
1532484319.31,40394,18.38,73898.3,2.43,-22.17,-21.53,0,*71
1532484320.52,40395,18.38,73892.3,2.45,-21.17,-17.69,0,*79
1532484321.74,40396,18.38,73892.0,2.41,-19.65,-19.07,0,*76
1532484323.02,40397,18.38,73898.0,2.43,-20.15,-21.23,0,*75
1532484324.29,40398,18.38,73894.8,2.41,-21.53,-22.31,0,*7B
1532484325.52,40399,18.38,73896.8,2.41,-21.23,-21.13,0,*7E
1532484326.78,40400,18.38,73898.3,2.43,-21.53,-21.39,0,*74
1532484328.04,40401,18.38,73894.3,2.43,-21.57,-20.63,0,*7F
1532484329.3,40402,18.38,73898.5,2.43,-21.39,-18.31,0,*78
1532484330.58,40403,18.38,73896.0,2.43,-19.23,-14.75,0,*75
1532484331.78,40404,18.38,73898.5,2.45,-16.75,-16.37,0,*7C
1532484332.99,40405,18.38,73894.0,2.45,-16.59,-17.83,0,*7D
1532484334.22,40406,18.38,73896.8,2.47,-18.17,-20.25,0,*70
1532484335.45,40407,18.38,73898.0,2.45,-20.53,-22.57,0,*7F
1532484336.74,40408,18.38,73894.3,2.43,-21.23,-22.47,0,*71
1532484337.96,40409,18.38,73894.8,2.47,-22.41,-23.13,0,*73
1532484339.17,40410,18.38,73890.0,2.45,-22.57,-23.13,0,*7E
1532484340.4,40411,18.38,73898.5,2.47,-22.57,-23.09,0,*76
1532484341.63,40412,18.38,73896.5,2.47,-22.41,-22.97,0,*74
1532484342.85,40413,18.38,73898.5,2.47,-22.63,-23.13,0,*78
1532484344.08,40414,18.38,73898.5,2.47,-22.57,-23.13,0,*78
1532484345.28,40415,18.38,73898.5,2.45,-22.57,-23.13,0,*7B
1532484346.51,40416,18.38,73894.3,2.47,-22.57,-23.09,0,*71
1532484347.71,40417,18.38,73898.8,2.45,-22.63,-23.13,0,*7E
1532484348.94,40418,18.38,73892.5,2.47,-22.57,-23.13,0,*74
1532484350.17,40419,18.38,73898.5,2.45,-22.63,-23.23,0,*73
1532484351.4,40420,18.38,73898.8,2.45,-22.63,-23.23,0,*79
1532484352.59,40421,18.38,73900.3,2.45,-22.63,-23.13,0,*7B
1532484353.84,40422,18.38,73904.5,2.45,-22.73,-23.29,0,*70
1532484355.04,40423,18.38,73902.3,2.45,-22.41,-23.09,0,*72
1532484356.24,40424,18.38,73902.5,2.45,-22.41,-23.09,0,*75
1532484357.48,40425,18.38,73898.3,2.45,-22.47,-23.13,0,*79
1532484358.7,40426,18.38,73898.3,2.45,-22.63,-23.23,0,*7F
1532484359.91,40427,18.38,73900.3,2.45,-22.57,-23.09,0,*71
1532484361.15,40428,18.38,73894.3,2.45,-22.47,-22.97,0,*79
1532484362.4,40429,18.38,73894.3,2.47,-22.47,-23.13,0,*77
1532484363.67,40430,18.38,73902.5,2.47,-22.73,-23.23,0,*7B
1532484364.9,40431,18.38,73898.0,2.45,-22.11,-22.77,0,*7C
1532484366.13,40432,18.38,73898.3,2.45,-22.63,-23.23,0,*7A
1532484367.36,40433,18.38,73898.3,2.45,-22.47,-22.97,0,*73
1532484368.59,40434,18.38,73896.8,2.45,-22.31,-22.97,0,*75
1532484369.84,40435,18.38,73898.0,2.47,-22.63,-23.23,0,*7F
1532484371.09,40436,18.38,73898.0,2.47,-22.63,-23.23,0,*7C
1532484372.34,40437,18.38,73898.0,2.47,-22.31,-22.93,0,*70
1532484373.59,40438,18.38,73898.0,2.47,-22.11,-22.73,0,*73
1532484374.84,40439,18.38,73898.8,2.45,-22.17,-22.73,0,*76
1532484376.12,40440,18.38,73900.3,2.47,-22.17,-22.77,0,*7E
1532484377.33,40441,18.38,73900.5,2.49,-22.57,-23.09,0,*7D
1532484378.56,40442,18.38,73902.3,2.49,-22.37,-23.03,0,*72
1532484379.8,40443,18.31,73898.0,2.49,-22.53,-23.03,0,*71
1532484381.0,40444,18.38,73898.8,2.49,-22.41,-23.09,0,*7F
1532484382.25,40445,18.38,73902.0,2.49,-22.73,-23.23,0,*77
1532484383.48,40446,18.38,73902.3,2.49,-22.67,-23.19,0,*78
1532484384.71,40447,18.38,73902.3,2.47,-22.41,-23.09,0,*72
1532484385.96,40448,18.38,73900.0,2.47,-22.47,-23.09,0,*7B
1532484387.18,40449,18.38,73902.0,2.47,-22.41,-22.87,0,*7B
1532484388.41,40450,18.38,73902.5,2.47,-22.57,-23.13,0,*78
1532484389.64,40451,18.38,73900.0,2.49,-22.67,-23.23,0,*77
1532484390.91,40452,18.38,73896.3,2.47,-22.73,-23.29,0,*75
1532484392.16,40453,18.38,73900.5,2.47,-22.73,-23.39,0,*75
1532484393.39,40454,18.38,73902.0,2.45,-22.57,-23.23,0,*7D
1532484394.64,40455,18.38,73898.8,2.49,-22.73,-23.33,0,*77
1532484395.87,40456,18.38,73898.5,2.47,-22.57,-23.13,0,*7E
1532484397.09,40457,18.38,73900.0,2.47,-22.63,-23.13,0,*78
1532484398.32,40458,18.38,73896.8,2.49,-22.53,-23.19,0,*70
1532484399.56,40459,18.38,73900.5,2.45,-22.77,-23.43,0,*74
1532484400.78,40460,18.38,73902.3,2.47,-22.63,-23.13,0,*7C
1532484402.04,40461,18.38,73900.8,2.47,-22.77,-23.43,0,*7D
1532484403.26,40462,18.38,73898.8,2.47,-22.87,-23.39,0,*7C
1532484404.49,40463,18.38,73902.3,2.47,-22.57,-23.13,0,*78
1532484405.71,40464,18.38,73902.3,2.47,-22.57,-23.13,0,*7F
1532484406.97,40465,18.38,73898.3,2.47,-22.77,-23.39,0,*74
1532484408.2,40466,18.38,73896.0,2.47,-22.57,-23.13,0,*7D
1532484409.42,40467,18.38,73892.5,2.45,-22.63,-23.23,0,*7A
1532484410.7,40468,18.38,73894.3,2.47,-22.73,-23.23,0,*76
1532484411.92,40469,18.38,73894.8,2.47,-22.87,-23.39,0,*77
1532484413.12,40470,18.38,73892.5,2.45,-22.57,-23.13,0,*78
1532484414.37,40471,18.38,73898.5,2.47,-22.63,-23.23,0,*7F
1532484415.62,40472,18.38,73898.5,2.47,-22.87,-23.53,0,*71
1532484416.87,40473,18.38,73898.5,2.47,-22.63,-23.23,0,*7D
1532484418.13,40474,18.38,73898.0,2.47,-22.73,-23.29,0,*71
1532484419.41,40475,18.38,73898.3,2.47,-22.77,-23.29,0,*74
1532484420.68,40476,18.38,73898.5,2.47,-22.73,-23.29,0,*73
1532484421.89,40477,18.38,73896.0,2.47,-22.87,-23.59,0,*7E
1532484423.12,40478,18.38,73896.3,2.47,-22.93,-23.59,0,*74
1532484424.35,40479,18.38,73896.3,2.47,-22.93,-23.59,0,*75
1532484425.59,40480,18.38,73900.8,2.47,-22.87,-23.53,0,*7C
1532484426.82,40481,18.38,73900.8,2.49,-22.57,-23.19,0,*70
1532484428.05,40482,18.38,73896.5,2.49,-22.57,-23.19,0,*73
1532484429.3,40483,18.38,73900.3,2.47,-22.63,-23.23,0,*72
1532484430.59,40484,18.38,73896.0,2.47,-22.77,-23.23,0,*70
1532484431.8,40485,18.38,73900.0,2.45,-22.93,-23.43,0,*7F
1532484433.03,40486,18.38,73900.5,2.47,-22.57,-23.09,0,*78
1532484434.26,40487,18.38,73898.8,2.47,-22.87,-23.43,0,*7A
1532484435.47,40488,18.38,73896.8,2.45,-22.87,-23.53,0,*76
1532484436.74,40489,18.38,73900.3,2.47,-22.73,-23.29,0,*73
1532484437.98,40490,18.38,73898.0,2.45,-22.77,-23.43,0,*71
1532484439.18,40491,18.38,73896.5,2.45,-22.93,-23.59,0,*71
1532484440.41,40492,18.38,73896.8,2.45,-22.77,-23.39,0,*7E
1532484441.64,40493,18.38,73898.3,2.47,-22.93,-23.43,0,*7A
1532484442.86,40494,18.38,73898.8,2.47,-22.87,-23.39,0,*75
1532484444.08,40495,18.38,73896.5,2.45,-22.87,-23.53,0,*7A
1532484445.31,40496,18.38,73902.5,2.45,-22.47,-23.09,0,*7A
1532484446.54,40497,18.38,73902.3,2.45,-22.63,-23.23,0,*75
1532484447.77,40498,18.38,73898.3,2.45,-22.47,-23.09,0,*74
1532484449.0,40499,18.38,73900.0,2.47,-22.41,-22.97,0,*77
1532484450.26,40500,18.38,73896.3,2.47,-22.77,-23.43,0,*7B
1532484451.48,40501,18.38,73896.3,2.45,-22.63,-23.23,0,*7B
1532484452.71,40502,18.38,73898.8,2.45,-22.73,-23.43,0,*7F
1532484453.93,40503,18.38,73902.8,2.45,-22.63,-23.29,0,*73
1532484455.13,40504,18.38,73900.8,2.45,-22.63,-23.13,0,*7D
1532484456.33,40505,18.38,73898.0,2.45,-22.41,-22.97,0,*71
1532484457.56,40506,18.38,73898.5,2.47,-22.41,-22.93,0,*74
1532484458.78,40507,18.38,73896.5,2.47,-22.41,-22.93,0,*75
1532484460.01,40508,18.38,73898.8,2.47,-22.63,-23.09,0,*78
1532484461.24,40509,18.38,73898.8,2.49,-22.53,-23.03,0,*7E
1532484462.46,40510,18.38,73906.8,2.49,-22.83,-23.33,0,*78
1532484463.72,40511,18.38,73906.5,2.49,-22.73,-23.23,0,*77
1532484464.96,40512,18.38,73898.8,2.47,-22.63,-23.29,0,*71
1532484466.17,40513,18.38,73898.0,2.49,-22.53,-23.09,0,*7F
1532484467.4,40514,18.38,73898.0,2.49,-22.21,-22.83,0,*7E
1532484468.62,40515,18.38,73902.0,2.49,-22.41,-23.03,0,*70
1532484469.85,40516,18.38,73898.3,2.49,-22.41,-23.03,0,*73
1532484471.1,40517,18.38,73900.0,2.49,-22.73,-23.33,0,*70
1532484472.35,40518,18.38,73900.8,2.51,-22.67,-23.19,0,*7B
1532484473.56,40519,18.38,73904.8,2.49,-22.57,-23.09,0,*71
1532484474.76,40520,18.38,73902.5,2.49,-22.27,-22.93,0,*7E
1532484475.96,40521,18.38,73898.8,2.49,-21.47,-22.07,0,*77
1532484477.18,40522,18.38,73896.5,2.51,-22.07,-22.67,0,*7C
1532484478.4,40523,18.38,73892.0,2.51,-22.11,-22.83,0,*70
1532484479.64,40524,18.38,73894.0,2.51,-22.53,-23.09,0,*72
1532484480.9,40525,18.38,73902.0,2.51,-22.57,-23.19,0,*76
1532484482.13,40526,18.38,73900.5,2.51,-22.53,-23.09,0,*70
1532484483.36,40527,18.31,73896.5,2.53,-22.21,-22.83,0,*75
1532484484.61,40528,18.38,73902.3,2.53,-22.31,-22.77,0,*70
1532484485.83,40529,18.38,73900.3,2.57,-22.31,-22.83,0,*7E
1532484487.08,40530,18.38,73900.8,2.53,-21.83,-22.21,0,*70
1532484488.3,40531,18.38,73898.5,2.57,-21.83,-22.41,0,*73
1532484489.53,40532,18.38,73898.3,2.57,-22.31,-22.93,0,*75
1532484490.76,40533,18.38,73900.8,2.57,-22.47,-22.93,0,*75
1532484491.98,40534,18.38,73898.5,2.59,-22.41,-22.93,0,*7A
1532484493.18,40535,18.38,73902.0,2.61,-22.37,-22.87,0,*74
1532484494.4,40536,18.38,73900.0,2.57,-22.63,-23.29,0,*76
1532484495.65,40537,18.38,73898.5,2.59,-22.73,-23.43,0,*74
1532484496.87,40538,18.38,73900.8,2.59,-22.83,-23.39,0,*79
1532484498.1,40539,18.38,73900.5,2.59,-22.83,-23.43,0,*75
1532484499.33,40540,18.38,73898.5,2.59,-22.83,-23.43,0,*7B
1532484500.58,40541,18.38,73900.5,2.53,-23.03,-23.65,0,*7D
1532484501.77,40542,18.31,73900.5,2.57,-22.41,-22.93,0,*75